#timestamp,LO_Frequency,Temp,Hum 
1439229615.3,286078801.1,33.3,37.6 
1439229635.4,286078802.7,33.3,37.6 
1439229655.5,286078798.8,33.3,38.1 
1439229675.7,286078801.5,33.3,38.1 
1439229695.8,286078799.8,33.3,38.6 
1439229715.9,286078798.4,33.3,38.6 
1439229736.1,286078797.5,33.3,39.1 
1439229755.3,286078800.3,33.3,39.1 
1439229775.4,286078800.3,33.3,39.1 
1439229795.5,286078801.3,33.3,39.6 
1439229815.7,286078800.9,33.3,39.6 
1439229835.8,286078798.3,33.3,40.1 
1439229855.9,286078796.9,33.3,40.1 
1439229876.0,286078803.0,33.3,40.1 
1439229895.3,286078798.8,33.3,40.1 
1439229915.4,286078801.3,33.3,40.1 
1439229935.5,286078795.4,33.3,40.1 
1439229955.6,286078802.7,33.3,40.1 
1439229975.8,286078797.3,33.3,40.1 
1439229995.9,286078802.2,33.3,40.1 
1439230016.0,286078800.7,33.3,40.1 
1439230035.2,286078799.4,33.3,40.1 
1439230055.3,286078800.3,33.3,40.1 
1439230075.5,286078798.4,33.3,40.1 
1439230095.6,286078801.7,33.3,40.1 
1439230115.7,286078801.1,33.3,40.1 
1439230135.8,286078799.7,33.3,40.1 
1439230156.0,286078795.5,33.3,40.1 
1439230176.1,286078800.4,33.3,40.1 
1439230195.3,286078803.1,33.3,40.1 
1439230215.4,286078797.6,33.3,40.1 
1439230235.6,286078802.6,33.3,39.6 
1439230255.7,286078799.4,33.3,39.6 
1439230275.8,286078797.4,33.3,39.6 
1439230295.9,286078800.1,33.3,39.6 
1439230316.1,286078801.2,33.3,39.6 
1439230335.3,286078806.0,33.3,39.6 
1439230355.4,286078794.7,33.3,39.6 
1439230375.5,286078796.0,33.3,39.6 
1439230395.7,286078801.2,33.3,39.6 
1439230415.8,286078799.3,33.3,39.1 
1439230435.9,286078800.7,33.3,39.6 
1439230456.0,286078800.1,33.3,39.6 
1439230475.3,286078800.1,33.3,39.1 
1439230495.4,286078803.1,33.3,39.1 
1439230515.5,286078798.9,33.3,39.1 
1439230535.6,286078801.9,33.3,39.1 
1439230555.8,286078800.9,33.3,39.1 
1439230575.9,286078801.2,33.3,39.1 
1439230596.0,286078804.1,33.3,39.1 
1439230615.2,286078797.8,33.3,39.1 
1439230635.4,286078802.6,33.3,39.1 
1439230655.5,286078801.1,33.3,39.1 
1439230675.6,286078799.3,33.3,39.1 
1439230695.7,286078800.2,33.3,39.1 
1439230715.9,286078803.1,33.3,39.1 
1439230736.0,286078797.9,33.3,39.1 
1439230755.2,286078799.6,33.3,39.1 
1439230775.3,286078799.2,33.3,39.1 
1439230795.5,286078799.1,33.3,39.1 
1439230815.6,286078800.3,33.3,39.1 
1439230835.7,286078799.3,32.6,39.1 
1439230855.9,286078800.5,32.6,39.6 
1439230876.0,286078801.7,32.6,39.1 
1439230895.2,286078801.3,32.6,39.1 
1439230915.4,286078797.4,32.6,39.6 
1439230935.5,286078800.3,32.6,39.6 
1439230955.6,286078805.2,32.6,39.6 
1439230975.7,286078799.0,32.6,39.1 
1439230995.9,286078801.0,32.6,39.1 
1439231016.0,286078803.0,32.6,39.1 
1439231035.2,286078801.6,32.6,39.1 
1439231055.3,286078798.7,32.6,39.1 
1439231075.5,286078798.7,32.6,39.6 
1439231095.6,286078798.5,32.6,39.6 
1439231115.7,286078798.8,32.6,39.6 
1439231135.8,286078800.3,32.6,39.6 
1439231156.0,286078799.5,32.6,39.6 
1439231176.1,286078800.2,32.6,39.6 
1439231195.3,286078802.8,32.6,39.6 
1439231215.4,286078801.0,32.6,39.6 
1439231235.6,286078802.9,32.6,39.6 
1439231255.7,286078796.8,32.6,39.6 
1439231275.8,286078799.5,32.6,39.6 
                                    1439231556.1,286078796.7,33.3,40.6 
1439231575.3,286078798.7,33.3,40.6 
1439231595.4,286078798.6,33.3,40.6 
1439231615.5,286078798.7,33.3,41.1 
1439231635.7,286078802.5,33.3,41.1 
1439231655.8,286078801.3,33.3,41.1 
1439231675.9,286078795.3,33.3,41.1 
1439231696.0,286078800.7,33.3,41.1 
1439231715.3,286078798.4,33.3,41.1 
1439231735.4,286078801.1,33.3,41.1 
1439231755.5,286078799.0,33.3,41.1 
1439231775.6,286078798.6,33.3,40.6 
1439231795.8,286078799.1,33.3,41.1 
1439231815.9,286078802.9,33.3,41.1 
1439231836.0,286078803.1,33.3,41.1 
1439231855.2,286078794.4,33.3,40.6 
1439231875.4,286078800.3,33.3,40.6 
1439231895.5,286078799.0,33.3,41.1 
1439231915.6,286078799.1,33.3,41.1 
1439231935.7,286078800.9,33.3,41.1 
1439231955.9,286078801.1,33.3,41.1 
1439231976.0,286078795.7,33.3,40.6 
1439231996.1,286078798.9,33.3,40.6 
1439232015.3,286078800.8,33.3,40.6 
1439232035.5,286078800.0,33.3,40.6 
1439232055.6,286078796.8,33.3,40.1 
1439232075.7,286078803.6,33.3,40.1 
1439232095.8,286078799.9,33.3,40.1 
1439232116.0,286078801.5,33.3,40.1 
1439232136.1,286078798.8,33.3,40.1 
1439232155.3,286078799.4,33.3,40.1 
1439232175.4,286078797.1,33.3,40.1 
1439232195.6,286078801.8,33.3,40.1 
1439232215.7,286078800.3,33.3,40.1 
1439232235.8,286078798.4,33.3,40.1 
1439232255.9,286078800.0,33.3,40.1 
1439232276.1,286078804.3,33.3,40.1 
1439232295.3,286078796.9,33.3,40.1 
1439232315.4,286078800.7,33.3,40.1 
1439232335.5,286078799.3,33.3,40.1 
1439232355.7,286078798.6,33.3,40.1 
1439232375.8,286078801.5,33.3,40.1 
1439232395.9,286078799.0,33.3,40.1 
1439232416.0,286078799.8,33.3,40.1 
1439232435.3,286078800.0,33.3,40.6 
1439232455.4,286078801.5,33.3,41.1 
1439232475.5,286078801.1,33.3,41.1 
1439232495.6,286078797.4,33.3,41.1 
1439232515.8,286078800.2,33.3,41.1 
1439232535.9,286078800.7,33.3,40.6 
1439232556.0,286078798.4,33.3,40.6 
1439232575.2,286078802.5,33.3,41.1 
1439232595.4,286078797.2,33.3,41.1 
1439232615.5,286078803.9,33.3,41.1 
1439232635.6,286078799.4,33.3,41.6 
1439232655.7,286078802.7,33.3,41.6 
1439232675.9,286078799.0,33.3,41.6 
1439232696.0,286078797.7,33.3,41.6 
1439232716.1,286078799.4,33.3,42.1 
1439232735.3,286078801.3,33.3,42.1 
1439232755.4,286078797.3,33.3,42.1 
1439232775.6,286078799.2,33.3,42.1 
1439232795.7,286078800.8,33.3,41.1 
1439232815.8,286078798.4,33.3,40.6 
1439232836.0,286078800.1,33.3,40.6 
1439232856.1,286078800.6,33.3,40.6 
1439232875.3,286078802.4,33.3,40.6 
1439232895.4,286078799.9,33.3,41.1 
1439232915.6,286078799.6,33.3,40.6 
1439232935.7,286078796.8,33.3,40.6 
1439232955.8,286078800.6,33.3,40.6 
1439232975.9,286078800.7,33.3,40.6 
1439232996.1,286078798.8,33.3,40.1 
1439233015.3,286078800.0,33.3,40.1 
1439233035.4,286078802.0,33.3,40.1 
1439233055.5,286078800.7,33.3,40.1 
1439233075.6,286078801.4,33.3,40.1 
1439233095.8,286078798.5,33.3,40.1 
1439233115.9,286078802.1,33.3,40.1 
1439233136.0,286078805.5,33.3,38.6 
1439233155.2,286078802.1,33.3,38.1 
1439233175.4,286078805.8,33.3,38.1 
1439233195.5,286078801.3,33.3,39.1 
